Location: Mt. Graham
(32.7020°N, 109.8880°W)
Time: 15:08:33
(UTC-07:00)

ISS - Visible Passes

Search period start: 24 November 2017 00:00
Search period end: 04 December 2017 00:00
Orbit: 401 x 407 km, 51.6° (Epoch: 25 November)

Date Brightness Start Highest point End Pass type
(mag) Time Alt. Az. Time Alt. Az. Time Alt. Az.
24 Nov -2.1 18:12:17 10° S 18:14:38 19° SE 18:15:23 17° ESE visible
24 Nov -0.2 19:48:03 10° W 19:48:03 10° W 19:48:03 10° W visible
25 Nov -3.4 18:55:19 10° SW 18:58:17 58° WNW 18:58:17 58° WNW visible
26 Nov -3.6 18:03:01 10° SSW 18:06:12 55° SE 18:08:24 18° ENE visible
27 Nov -2.0 18:47:38 10° W 18:50:20 23° NW 18:51:06 21° NNW visible
28 Nov -3.0 17:54:42 10° WSW 17:57:51 46° NW 18:01:01 10° NE visible
29 Nov -1.1 18:41:03 10° NW 18:42:15 12° NNW 18:43:28 10° N visible
30 Nov -1.6 17:47:10 10° W 17:49:36 19° NW 17:52:04 10° NNE visible
